This demonstration page uses our WeatherBlox Daily Observations layout. Learn more.

Left ArrowRight Arrow

Hourly Observations for October 1, 2016

Temp ( °F °C ) Dew Point ( °F °C ) Humidity (%) Winds ( mph kmh ) Pressure ( in mb ) Visibility ( mi km ) Precip ( " mm )
12:54 am 00:54 Clear 56 13.3 51 10.6 84 84 Calm 30.16 1021 10 16.0934 0 0
1:54 am 01:54 Clear 49 9.4 47 8.3 93 93 NNE 6 9 30.16 1021 10 16.0934 0 0
2:54 am 02:54 Clear 49 9.4 47 8.3 93 93 NNW 5 7 30.16 1021 10 16.0934 0 0
3:54 am 03:54 Clear 50 10 48 8.9 93 93 N 5 7 30.15 1021 10 16.0934 0 0
4:54 am 04:54 Clear 46 7.8 45 7.2 96 96 N 5 7 30.16 1021 10 16.0934 0 0
5:54 am 05:54 Clear 45 7.2 44 6.7 97 97 N 5 7 30.16 1021 9 14.48406 0 0
6:54 am 06:54 Clear 44 6.7 43 6.1 96 96 N 5 7 30.16 1021 9 14.48406 0 0
7:10 am 07:10 Mostly Clear 45 7 45 7 100 100 NNE 5 7 30.21 1023 10 16.0934 0 0
7:29 am 07:29 Mostly Cloudy with Mist and Fog 46 7.8 45 7.2 96 96 N 3 6 30.18 1022 1 1.60934 0 0
7:36 am 07:36 Mostly Cloudy with Fog 45 7 45 7 100 100 N 3 6 30.18 1022 0.5 0.80467 0 0
7:40 am 07:40 Partly Cloudy with Mist and Fog 45 7 45 7 100 100 N 5 7 30.18 1022 1.5 2.41401 0 0
7:42 am 07:42 Partly Cloudy with Mist and Fog 44 6.7 44 6.7 100 100 N 3 6 30.18 1022 3 4.82802 0 0
7:52 am 07:52 Partly Cloudy with Mist and Fog 46 8 45 7 93 93 Calm 30.21 1023 1.75 2.816345 0 0
7:54 am 07:54 Partly Cloudy with Mist and Fog 47 8.3 45 7.2 93 93 WNW 3 6 30.17 1022 2 3.21868 0 0
8:04 am 08:04 Mostly Sunny 48 9 46 8 94 94 Calm 30.18 1022 10 16.0934 0 0
8:49 am 08:49 Sunny with Mist and Fog 52 11 48 9 88 88 NNE 3 6 30.18 1022 1 1.60934 0 0
8:54 am 08:54 Sunny with Mist and Fog 52 11.1 49 9.4 89 89 Calm 30.16 1021 1 1.60934 0 0
9:01 am 09:01 Sunny 54 12 50 10 88 88 Calm 30.15 1021 7 11.26538 0 0
9:54 am 09:54 Sunny 59 15 54 12.2 83 83 E 3 6 30.15 1021 10 16.0934 0 0
10:54 am 10:54 Sunny 64 17.8 55 12.8 73 73 Calm 30.14 1021 10 16.0934 0 0
11:54 am 11:54 Sunny 65 18.3 54 12.2 68 68 SE 6 9 30.13 1020 10 16.0934 0 0
12:54 pm 12:54 Partly Cloudy 70 21.1 54 12.2 57 57 ESE 8 13 30.11 1020 10 16.0934 0 0
1:54 pm 13:54 Mostly Cloudy 70 21.1 54 12.2 57 57 S 6 9 30.09 1019 10 16.0934 0 0
2:54 pm 14:54 Mostly Cloudy 71 21.7 54 12.2 55 55 ESE 5 7 30.08 1019 10 16.0934 0 0
3:54 pm 15:54 Cloudy 69 20.6 53 11.7 57 57 E 5 7 30.07 1018 10 16.0934 0 0
4:54 pm 16:54 Partly Cloudy 69 20.6 54 12.2 59 59 E 7 11 30.06 1018 10 16.0934 0 0
5:54 pm 17:54 Sunny 69 20.6 54 12.2 59 59 ENE 9 15 30.06 1018 10 16.0934 0 0
6:54 pm 18:54 Sunny 66 18.9 54 12.2 65 65 E 6 9 30.06 1018 10 16.0934 0 0
7:54 pm 19:54 Clear 63 17.2 53 11.7 70 70 E 5 7 30.06 1018 10 16.0934 0 0
8:54 pm 20:54 Clear 60 15.6 53 11.7 78 78 SE 5 7 30.08 1019 10 16.0934 0 0
9:54 pm 21:54 Clear 60 15.6 53 11.7 78 78 S 3 6 30.08 1019 10 16.0934 0 0
10:54 pm 22:54 Clear 56 13.3 52 11.1 87 87 Calm 30.08 1019 10 16.0934 0 0
11:54 pm 23:54 Clear 53 11.7 51 10.6 93 93 Calm 30.09 1019 9 14.48406 0 0

Powered by AerisWeather